Change the Weather History Date:

Friday, January 20, 2012

  Actual Average Record
Temperature  
Mean Temperature 53 °F 45 °F  
Max Temperature 58 °F 52 °F 72 °F (1907)
Min Temperature 47 °F 39 °F 10 °F (1985)
Degree Days  
Heating Degree Days 12 20  
Month to date heating degree days 312 393  
Since 1 July heating degree days 894 1200  
Cooling Degree Days 0 0  
Month to date cooling degree days 0 0  
Year to date cooling degree days 0 0  
Moisture  
Dew Point 42 °F    
Average Humidity 66    
Maximum Humidity 82    
Minimum Humidity 50    
Precipitation  
Precipitation T in 0.17 in 3.03 in (1978)
Month to date precipitation 4.34 3.40  
Year to date precipitation 4.34 3.40  
Snow  
Snow 0.00 in - - ()
Month to date snowfall 0.0  
Since 1 July snowfall 0.0  
Snow Depth 0.00 in    
Sea Level Pressure  
Sea Level Pressure 30.17 in    
Wind  
Wind Speed 6 mph (NW)    
Max Wind Speed 13 mph    
Max Gust Speed 18 mph    
Visibility 10 miles    
Events Rain    
T = Trace of Precipitation, MM = Missing Value Source: NWS Daily Summary

Daily Weather History Graph

Daily Weather History Graph

Search for Another Location

Airport or City:

Trip Planner

Search our weather history database for the weather conditions in past years. The results will help you decide how hot, cold, wet, or windy it might be!

Date:

Astronomy

Jan. 20, 2012 Rise Set
Actual Time 7:09 AM EST 5:18 PM EST
Civil Twilight 6:41 AM EST 5:45 PM EST
Nautical Twilight 6:10 AM EST 6:16 PM EST
Astronomical Twilight 5:40 AM EST 6:46 PM EST
Moon 4:41 AM EST (1/20) 2:49 PM EST (1/20)
Length of Visible Light 11h 03m
Length of Day
10h 09m
Waning Crescent, 8% of the Moon is Illuminated
Jan 20
Waning Crescent
Jan 23
New
Jan 30
First Quarter
Feb 7
Full
Feb 14
Last Quarter

Hourly Weather History & Observations

Time (EST) Temp. Dew Point Humidity Pressure Visibility Wind Dir Wind Speed Gust Speed Precip Events Conditions
12:51 AM 54.0 °F 39.0 °F 57% 30.11 in 10.0 mi WSW 11.5 mph - N/A   Scattered Clouds
1:51 AM 48.0 °F 39.9 °F 74% 30.11 in 10.0 mi West 5.8 mph - N/A   Partly Cloudy
2:51 AM 48.9 °F 39.9 °F 71% 30.12 in 10.0 mi WNW 6.9 mph - N/A   Overcast
3:51 AM 48.0 °F 41.0 °F 77% 30.12 in 10.0 mi WNW 5.8 mph - N/A   Clear
4:51 AM 48.0 °F 41.0 °F 77% 30.12 in 10.0 mi West 5.8 mph - N/A   Mostly Cloudy
5:51 AM 46.9 °F 41.0 °F 80% 30.13 in 10.0 mi WNW 4.6 mph - N/A   Clear
6:51 AM 48.9 °F 43.0 °F 80% 30.15 in 10.0 mi West 5.8 mph - N/A   Clear
7:51 AM 50.0 °F 43.0 °F 77% 30.17 in 10.0 mi WNW 5.8 mph - N/A   Clear
8:51 AM 50.0 °F 43.0 °F 77% 30.20 in 10.0 mi WNW 6.9 mph - N/A   Clear
9:51 AM 52.0 °F 42.1 °F 69% 30.21 in 10.0 mi NW 6.9 mph - N/A   Clear
10:51 AM 52.0 °F 43.0 °F 71% 30.20 in 10.0 mi WNW 8.1 mph - N/A   Clear
11:51 AM 54.0 °F 43.0 °F 66% 30.19 in 10.0 mi West 5.8 mph - N/A   Clear
12:51 PM 52.0 °F 43.0 °F 71% 30.18 in 10.0 mi Variable 3.5 mph - N/A   Overcast
1:51 PM 53.1 °F 39.0 °F 59% 30.17 in 10.0 mi NNE 9.2 mph - N/A   Mostly Cloudy
2:51 PM 52.0 °F 39.9 °F 63% 30.19 in 10.0 mi NNE 8.1 mph 16.1 mph N/A   Mostly Cloudy
3:51 PM 51.1 °F 41.0 °F 68% 30.20 in 10.0 mi Variable 5.8 mph - N/A   Mostly Cloudy
4:51 PM 51.1 °F 42.1 °F 71% 30.20 in 10.0 mi ENE 6.9 mph - N/A   Overcast
5:51 PM 52.0 °F 43.0 °F 71% 30.21 in 10.0 mi ENE 5.8 mph - N/A   Overcast
6:51 PM 52.0 °F 43.0 °F 71% 30.22 in 10.0 mi NE 5.8 mph - 0.00 in Rain Light Rain
7:51 PM 52.0 °F 43.0 °F 71% 30.22 in 10.0 mi NE 4.6 mph - 0.00 in   Overcast
8:51 PM 53.1 °F 44.1 °F 71% 30.21 in 10.0 mi Variable 4.6 mph - N/A   Overcast
9:51 PM 53.1 °F 45.0 °F 74% 30.20 in 10.0 mi Calm Calm - N/A   Overcast
10:51 PM 54.0 °F 46.0 °F 75% 30.18 in 10.0 mi NE 5.8 mph - N/A   Overcast
11:51 PM 55.0 °F 46.9 °F 74% 30.15 in 10.0 mi East 4.6 mph - N/A   Mostly Cloudy